Time,TemperatureF,DewpointF,PressureIn,WindDirection,WindDirectionDegrees,WindSpeedMPH,WindSpeedGustMPH,Humidity,HourlyPrecipIn,Conditions,Clouds,dailyrainin,SoftwareType,DateUTC
2013-05-01 00:02:00,69.0,44.0,-100.00,NNW,330,10.0,17.0,41,0.00,,,-99.99,,2013-05-01 05:02:00,
2013-05-01 00:11:00,69.0,44.0,-100.00,NNW,330,10.0,17.0,41,0.00,,,-99.99,,2013-05-01 05:11:00,
2013-05-01 00:21:00,69.0,44.0,-100.00,NNW,330,10.0,17.0,41,0.00,,,-99.99,,2013-05-01 05:21:00,
2013-05-01 00:32:00,69.0,44.0,-100.00,NNW,330,10.0,17.0,41,0.00,,,-99.99,,2013-05-01 05:32:00,
2013-05-01 00:40:00,62.0,39.0,-100.00,North,0,11.0,18.0,43,0.00,,,-99.99,,2013-05-01 05:40:00,
2013-05-01 01:02:00,62.0,39.0,-100.00,North,0,11.0,18.0,43,0.00,,,-99.99,,2013-05-01 06:02:00,
2013-05-01 01:12:00,62.0,39.0,-100.00,North,0,11.0,18.0,43,0.00,,,-99.99,,2013-05-01 06:12:00,
2013-05-01 01:22:00,62.0,39.0,-100.00,North,0,11.0,18.0,43,0.00,,,-99.99,,2013-05-01 06:22:00,
2013-05-01 01:32:00,62.0,39.0,-100.00,North,0,11.0,18.0,43,0.00,,,-99.99,,2013-05-01 06:32:00,
2013-05-01 02:01:00,59.0,40.0,-100.00,North,0,7.0,15.0,49,0.00,,,-99.99,,2013-05-01 07:01:00,
2013-05-01 02:11:00,59.0,40.0,-100.00,North,0,7.0,15.0,49,0.00,,,-99.99,,2013-05-01 07:11:00,
2013-05-01 02:21:00,59.0,40.0,-100.00,North,0,7.0,15.0,49,0.00,,,-99.99,,2013-05-01 07:21:00,
2013-05-01 02:32:00,59.0,40.0,-100.00,North,0,7.0,15.0,49,0.00,,,-99.99,,2013-05-01 07:32:00,
2013-05-01 02:40:00,57.0,44.0,-100.00,NNE,20,2.0,6.0,62,0.00,,,-99.99,,2013-05-01 07:40:00,
2013-05-01 03:02:00,57.0,44.0,-100.00,NNE,20,2.0,6.0,62,0.00,,,-99.99,,2013-05-01 08:02:00,
2013-05-01 03:11:00,57.0,44.0,-100.00,NNE,20,2.0,6.0,62,0.00,,,-99.99,,2013-05-01 08:11:00,
2013-05-01 03:22:00,57.0,44.0,-100.00,NNE,20,2.0,6.0,62,0.00,,,-99.99,,2013-05-01 08:22:00,
2013-05-01 03:32:00,57.0,44.0,-100.00,NNE,20,2.0,6.0,62,0.00,,,-99.99,,2013-05-01 08:32:00,
2013-05-01 03:40:00,54.0,45.0,-100.00,NNE,30,2.0,4.0,71,0.00,,,-99.99,,2013-05-01 08:40:00,
2013-05-01 04:01:00,54.0,45.0,-100.00,NNE,30,2.0,4.0,71,0.00,,,-99.99,,2013-05-01 09:01:00,
2013-05-01 04:12:00,54.0,45.0,-100.00,NNE,30,2.0,4.0,71,0.00,,,-99.99,,2013-05-01 09:12:00,
2013-05-01 04:21:00,54.0,45.0,-100.00,NNE,30,2.0,4.0,71,0.00,,,-99.99,,2013-05-01 09:21:00,
2013-05-01 04:33:00,54.0,45.0,-100.00,NNE,30,2.0,4.0,71,0.00,,,-99.99,,2013-05-01 09:33:00,
2013-05-01 04:41:00,54.0,46.0,-100.00,NNW,340,2.0,6.0,74,0.00,,,-99.99,,2013-05-01 09:41:00,
2013-05-01 05:03:00,54.0,46.0,-100.00,NNW,340,2.0,6.0,74,0.00,,,-99.99,,2013-05-01 10:03:00,
2013-05-01 05:12:00,54.0,46.0,-100.00,NNW,340,2.0,6.0,74,0.00,,,-99.99,,2013-05-01 10:12:00,
2013-05-01 05:22:00,54.0,46.0,-100.00,NNW,340,2.0,6.0,74,0.00,,,-99.99,,2013-05-01 10:22:00,
2013-05-01 05:33:00,54.0,46.0,-100.00,NNW,340,2.0,6.0,74,0.00,,,-99.99,,2013-05-01 10:33:00,
2013-05-01 06:02:00,53.0,47.0,-100.00,NNW,335,9.0,12.0,79,0.00,,,-99.99,,2013-05-01 11:02:00,
2013-05-01 06:11:00,53.0,47.0,-100.00,NNW,335,9.0,12.0,79,0.00,,,-99.99,,2013-05-01 11:11:00,
2013-05-01 06:22:00,53.0,47.0,-100.00,NNW,335,9.0,12.0,79,0.00,,,-99.99,,2013-05-01 11:22:00,
2013-05-01 06:32:00,53.0,47.0,-100.00,NNW,335,9.0,12.0,79,0.00,,,-99.99,,2013-05-01 11:32:00,
2013-05-01 07:01:00,54.0,48.0,-100.00,NW,325,7.0,14.0,80,0.00,,,-99.99,,2013-05-01 12:01:00,
2013-05-01 07:11:00,54.0,48.0,-100.00,NW,325,7.0,14.0,80,0.00,,,-99.99,,2013-05-01 12:11:00,
2013-05-01 07:21:00,54.0,48.0,-100.00,NW,325,7.0,14.0,80,0.00,,,-99.99,,2013-05-01 12:21:00,
2013-05-01 07:31:00,54.0,48.0,-100.00,NW,325,7.0,14.0,80,0.00,,,-99.99,,2013-05-01 12:31:00,
2013-05-01 08:01:00,58.0,47.0,-100.00,North,350,9.0,17.0,67,0.00,,,-99.99,,2013-05-01 13:01:00,
2013-05-01 08:11:00,58.0,47.0,-100.00,North,350,9.0,17.0,67,0.00,,,-99.99,,2013-05-01 13:11:00,
2013-05-01 08:21:00,58.0,47.0,-100.00,North,350,9.0,17.0,67,0.00,,,-99.99,,2013-05-01 13:21:00,
2013-05-01 08:32:00,58.0,47.0,-100.00,North,350,9.0,17.0,67,0.00,,,-99.99,,2013-05-01 13:32:00,
2013-05-01 09:02:00,58.0,45.0,-100.00,North,350,11.0,17.0,62,0.00,,,-99.99,,2013-05-01 14:02:00,
2013-05-01 09:11:00,58.0,45.0,-100.00,North,350,11.0,17.0,62,0.00,,,-99.99,,2013-05-01 14:11:00,
2013-05-01 09:22:00,58.0,45.0,-100.00,North,350,11.0,17.0,62,0.00,,,-99.99,,2013-05-01 14:22:00,
2013-05-01 09:32:00,58.0,45.0,-100.00,North,350,11.0,17.0,62,0.00,,,-99.99,,2013-05-01 14:32:00,
2013-05-01 10:01:00,61.0,45.0,-100.00,NNW,340,12.0,17.0,56,0.00,,,-99.99,,2013-05-01 15:01:00,
2013-05-01 10:11:00,61.0,45.0,-100.00,NNW,340,12.0,17.0,56,0.00,,,-99.99,,2013-05-01 15:11:00,
2013-05-01 10:21:00,61.0,45.0,-100.00,NNW,340,12.0,17.0,56,0.00,,,-99.99,,2013-05-01 15:21:00,
2013-05-01 10:33:00,61.0,45.0,-100.00,NNW,340,12.0,17.0,56,0.00,,,-99.99,,2013-05-01 15:33:00,
2013-05-01 11:03:00,63.0,45.0,-100.00,NNW,345,9.0,17.0,52,0.00,,,-99.99,,2013-05-01 16:03:00,
2013-05-01 11:12:00,63.0,45.0,-100.00,NNW,345,9.0,17.0,52,0.00,,,-99.99,,2013-05-01 16:12:00,
2013-05-01 11:22:00,63.0,45.0,-100.00,NNW,345,9.0,17.0,52,0.00,,,-99.99,,2013-05-01 16:22:00,
2013-05-01 11:32:00,63.0,45.0,-100.00,NNW,345,9.0,17.0,52,0.00,,,-99.99,,2013-05-01 16:32:00,
2013-05-01 11:42:00,67.0,44.0,-100.00,NNE,20,7.0,14.0,45,0.00,,,-99.99,,2013-05-01 16:42:00,
2013-05-01 12:02:00,67.0,44.0,-100.00,NNE,20,7.0,14.0,45,0.00,,,-99.99,,2013-05-01 17:02:00,
2013-05-01 12:12:00,67.0,44.0,-100.00,NNE,20,7.0,14.0,45,0.00,,,-99.99,,2013-05-01 17:12:00,
2013-05-01 12:22:00,67.0,44.0,-100.00,NNE,20,7.0,14.0,45,0.00,,,-99.99,,2013-05-01 17:22:00,
2013-05-01 12:32:00,67.0,44.0,-100.00,NNE,20,7.0,14.0,45,0.00,,,-99.99,,2013-05-01 17:32:00,
2013-05-01 13:01:00,72.0,44.0,-100.00,WNW,285,1.0,7.0,38,0.00,,,-99.99,,2013-05-01 18:01:00,
2013-05-01 13:11:00,72.0,44.0,-100.00,WNW,285,1.0,7.0,38,0.00,,,-99.99,,2013-05-01 18:11:00,
2013-05-01 13:22:00,72.0,44.0,-100.00,WNW,285,1.0,7.0,38,0.00,,,-99.99,,2013-05-01 18:22:00,
2013-05-01 13:32:00,72.0,44.0,-100.00,WNW,285,1.0,7.0,38,0.00,,,-99.99,,2013-05-01 18:32:00,
2013-05-01 14:02:00,74.0,45.0,-100.00,ENE,60,2.0,4.0,36,0.00,,,-99.99,,2013-05-01 19:02:00,
2013-05-01 14:11:00,74.0,45.0,-100.00,ENE,60,2.0,4.0,36,0.00,,,-99.99,,2013-05-01 19:11:00,
2013-05-01 14:22:00,74.0,45.0,-100.00,ENE,60,2.0,4.0,36,0.00,,,-99.99,,2013-05-01 19:22:00,
2013-05-01 14:32:00,74.0,45.0,-100.00,ENE,60,2.0,4.0,36,0.00,,,-99.99,,2013-05-01 19:32:00,
2013-05-01 15:02:00,74.0,44.0,-100.00,South,185,4.0,12.0,35,0.00,,,-99.99,,2013-05-01 20:02:00,
2013-05-01 15:11:00,74.0,44.0,-100.00,South,185,4.0,12.0,35,0.00,,,-99.99,,2013-05-01 20:11:00,
2013-05-01 15:21:00,74.0,44.0,-100.00,South,185,4.0,12.0,35,0.00,,,-99.99,,2013-05-01 20:21:00,
2013-05-01 15:32:00,74.0,44.0,-100.00,South,185,4.0,12.0,35,0.00,,,-99.99,,2013-05-01 20:32:00,
2013-05-01 16:01:00,77.0,45.0,-100.00,SE,125,4.0,9.0,32,0.00,,,-99.99,,2013-05-01 21:01:00,
2013-05-01 16:11:00,77.0,45.0,-100.00,SE,125,4.0,9.0,32,0.00,,,-99.99,,2013-05-01 21:11:00,
2013-05-01 16:22:00,77.0,45.0,-100.00,SE,125,4.0,9.0,32,0.00,,,-99.99,,2013-05-01 21:22:00,
2013-05-01 16:32:00,77.0,45.0,-100.00,SE,125,4.0,9.0,32,0.00,,,-99.99,,2013-05-01 21:32:00,
2013-05-01 17:03:00,77.0,45.0,-100.00,NW,320,3.0,7.0,32,0.00,,,-99.99,,2013-05-01 22:03:00,
2013-05-01 17:12:00,77.0,45.0,-100.00,NW,320,3.0,7.0,32,0.00,,,-99.99,,2013-05-01 22:12:00,
2013-05-01 17:23:00,77.0,45.0,-100.00,NW,320,3.0,7.0,32,0.00,,,-99.99,,2013-05-01 22:23:00,
2013-05-01 17:33:00,77.0,45.0,-100.00,NW,320,3.0,7.0,32,0.00,,,-99.99,,2013-05-01 22:33:00,
2013-05-01 18:02:00,70.0,42.0,-100.00,NW,325,17.0,26.0,36,0.00,,,-99.99,,2013-05-01 23:02:00,
2013-05-01 18:12:00,70.0,42.0,-100.00,NW,325,17.0,26.0,36,0.00,,,-99.99,,2013-05-01 23:12:00,
2013-05-01 18:21:00,70.0,42.0,-100.00,NW,325,17.0,26.0,36,0.00,,,-99.99,,2013-05-01 23:21:00,
2013-05-01 18:32:00,70.0,42.0,-100.00,NW,325,17.0,26.0,36,0.00,,,-99.99,,2013-05-01 23:32:00,
2013-05-01 18:40:00,65.0,42.0,-100.00,North,0,14.0,22.0,43,0.00,,,-99.99,,2013-05-01 23:40:00,
2013-05-01 19:01:00,65.0,42.0,-100.00,North,0,14.0,22.0,43,0.00,,,-99.99,,2013-05-02 00:01:00,
2013-05-01 19:11:00,65.0,42.0,-100.00,North,0,14.0,22.0,43,0.00,,,-99.99,,2013-05-02 00:11:00,
2013-05-01 19:21:00,65.0,42.0,-100.00,North,0,14.0,22.0,43,0.00,,,-99.99,,2013-05-02 00:21:00,
2013-05-01 19:32:00,65.0,42.0,-100.00,North,0,14.0,22.0,43,0.00,,,-99.99,,2013-05-02 00:32:00,
2013-05-01 19:41:00,61.0,41.0,-100.00,NNW,340,16.0,22.0,48,0.00,,,-99.99,,2013-05-02 00:41:00,
2013-05-01 20:01:00,61.0,41.0,-100.00,NNW,340,16.0,22.0,48,0.00,,,-99.99,,2013-05-02 01:01:00,
2013-05-01 20:11:00,61.0,41.0,-100.00,NNW,340,16.0,22.0,48,0.00,,,-99.99,,2013-05-02 01:11:00,
2013-05-01 20:21:00,61.0,41.0,-100.00,NNW,340,16.0,22.0,48,0.00,,,-99.99,,2013-05-02 01:21:00,
2013-05-01 20:32:00,61.0,41.0,-100.00,NNW,340,16.0,22.0,48,0.00,,,-99.99,,2013-05-02 01:32:00,
2013-05-01 20:40:00,59.0,41.0,-100.00,NNW,340,16.0,24.0,51,0.00,,,-99.99,,2013-05-02 01:40:00,
2013-05-01 21:02:00,59.0,41.0,-100.00,NNW,340,16.0,24.0,51,0.00,,,-99.99,,2013-05-02 02:02:00,
2013-05-01 21:12:00,59.0,41.0,-100.00,NNW,340,16.0,24.0,51,0.00,,,-99.99,,2013-05-02 02:12:00,
2013-05-01 21:21:00,59.0,41.0,-100.00,NNW,340,16.0,24.0,51,0.00,,,-99.99,,2013-05-02 02:21:00,
2013-05-01 21:32:00,59.0,41.0,-100.00,NNW,340,16.0,24.0,51,0.00,,,-99.99,,2013-05-02 02:32:00,
2013-05-01 22:01:00,53.0,39.0,-100.00,NNW,335,17.0,29.0,59,0.00,,,-99.99,,2013-05-02 03:01:00,
2013-05-01 22:11:00,53.0,39.0,-100.00,NNW,335,17.0,29.0,59,0.00,,,-99.99,,2013-05-02 03:11:00,
2013-05-01 22:22:00,53.0,39.0,-100.00,NNW,335,17.0,29.0,59,0.00,,,-99.99,,2013-05-02 03:22:00,
2013-05-01 22:33:00,53.0,39.0,-100.00,NNW,335,17.0,29.0,59,0.00,,,-99.99,,2013-05-02 03:33:00,
2013-05-01 23:03:00,49.0,38.0,-100.00,North,0,14.0,26.0,68,0.00,,,-99.99,,2013-05-02 04:03:00,
2013-05-01 23:12:00,49.0,38.0,-100.00,North,0,14.0,26.0,68,0.00,,,-99.99,,2013-05-02 04:12:00,
2013-05-01 23:23:00,49.0,38.0,-100.00,North,0,14.0,26.0,68,0.00,,,-99.99,,2013-05-02 04:23:00,
2013-05-01 23:33:00,49.0,38.0,-100.00,North,0,14.0,26.0,68,0.00,,,-99.99,,2013-05-02 04:33:00,